ECHOSTAR 14

Last updated on Fri Sep 19 2025 00:02:47 GMT+0000 (Coordinated Universal Time)

1 36499U 10010A 25261.16919510 .00000000 00000+0 00000+0 0 9999 2 36499 0.0245 166.4907 0001965 6.0549 126.8050 1.00269818 43826
UTC large
Height (km)
Speed (km/s)
/
Latitude / Longitude
Inclination (degrees)
Orbital Period (minutes)
Azimuth
Elevation
Range (km)
Doppler Factor

Next 0 passes for location: London (51.5072 / 0.1276)

Sorry there are no passes over London.